#Datum;Uhrzeit;WR;Pac;DaySum;Status;WR;Pac;DaySum;Status;Pdc1;Udc;Temp;WR;Pac;DaySum;Status;Pdc1;Udc;Temp;WR;Pac;DaySum;Status;Pdc1;Udc;Temp;WR;Pac;DaySum;Status;Pdc1;Pdc2;Udc1;Udc2;Temp;WR;Pac;DaySum;Status;Pdc1;Pdc2;Udc1;Udc2;Temp;WR;Pac;DaySum;Status;Pdc1;Udc;Temp;WR;Pac;DaySum;Status;Pdc1;Udc;Temp;WR;Pac;DaySum;Status;Pdc1;Udc;Temp
26.02.19;23:55:00;1;266;13792;0;2;0;19703;0;0;0;0;3;0;12741;0;0;0;0;4;0;19060;0;0;0;0;5;0;48849;0;0;0;0;0;0;6;0;37751;0;0;0;0;0;0;7;0;30122;0;0;0;0;8;0;29888;0;0;0;0;9;0;16335;0;0;0;0
26.02.19;23:50:00;1;266;13770;0;2;0;19703;0;0;0;0;3;0;12741;0;0;0;0;4;0;19060;0;0;0;0;5;0;48849;0;0;0;0;0;0;6;0;37751;0;0;0;0;0;0;7;0;30122;0;0;0;0;8;0;29888;0;0;0;0;9;0;16335;0;0;0;0
26.02.19;23:45:00;1;224;13749;0;2;0;19703;0;0;0;0;3;0;12741;0;0;0;0;4;0;19060;0;0;0;0;5;0;48849;0;0;0;0;0;0;6;0;37751;0;0;0;0;0;0;7;0;30122;0;0;0;0;8;0;29888;0;0;0;0;9;0;16335;0;0;0;0
26.02.19;23:40:00;1;224;13730;0;2;0;19703;0;0;0;0;3;0;12741;0;0;0;0;4;0;19060;0;0;0;0;5;0;48849;0;0;0;0;0;0;6;0;37751;0;0;0;0;0;0;7;0;30122;0;0;0;0;8;0;29888;0;0;0;0;9;0;16335;0;0;0;0
26.02.19;23:35:00;1;225;13711;0;2;0;19703;0;0;0;0;3;0;12741;0;0;0;0;4;0;19060;0;0;0;0;5;0;48849;0;0;0;0;0;0;6;0;37751;0;0;0;0;0;0;7;0;30122;0;0;0;0;8;0;29888;0;0;0;0;9;0;16335;0;0;0;0
26.02.19;23:30:00;1;224;13693;0;2;0;19703;0;0;0;0;3;0;12741;0;0;0;0;4;0;19060;0;0;0;0;5;0;48849;0;0;0;0;0;0;6;0;37751;0;0;0;0;0;0;7;0;30122;0;0;0;0;8;0;29888;0;0;0;0;9;0;16335;0;0;0;0
26.02.19;23:25:00;1;226;13674;0;2;0;19703;0;0;0;0;3;0;12741;0;0;0;0;4;0;19060;0;0;0;0;5;0;48849;0;0;0;0;0;0;6;0;37751;0;0;0;0;0;0;7;0;30122;0;0;0;0;8;0;29888;0;0;0;0;9;0;16335;0;0;0;0
26.02.19;23:20:00;1;226;13655;0;2;0;19703;0;0;0;0;3;0;12741;0;0;0;0;4;0;19060;0;0;0;0;5;0;48849;0;0;0;0;0;0;6;0;37751;0;0;0;0;0;0;7;0;30122;0;0;0;0;8;0;29888;0;0;0;0;9;0;16335;0;0;0;0
26.02.19;23:15:00;1;227;13636;0;2;0;19703;0;0;0;0;3;0;12741;0;0;0;0;4;0;19060;0;0;0;0;5;0;48849;0;0;0;0;0;0;6;0;37751;0;0;0;0;0;0;7;0;30122;0;0;0;0;8;0;29888;0;0;0;0;9;0;16335;0;0;0;0
26.02.19;23:10:00;1;238;13617;0;2;0;19703;0;0;0;0;3;0;12741;0;0;0;0;4;0;19060;0;0;0;0;5;0;48849;0;0;0;0;0;0;6;0;37751;0;0;0;0;0;0;7;0;30122;0;0;0;0;8;0;29888;0;0;0;0;9;0;16335;0;0;0;0
26.02.19;23:05:00;1;268;13597;0;2;0;19703;0;0;0;0;3;0;12741;0;0;0;0;4;0;19060;0;0;0;0;5;0;48849;0;0;0;0;0;0;6;0;37751;0;0;0;0;0;0;7;0;30122;0;0;0;0;8;0;29888;0;0;0;0;9;0;16335;0;0;0;0
26.02.19;23:00:00;1;272;13575;0;2;0;19703;0;0;0;0;3;0;12741;0;0;0;0;4;0;19060;0;0;0;0;5;0;48849;0;0;0;0;0;0;6;0;37751;0;0;0;0;0;0;7;0;30122;0;0;0;0;8;0;29888;0;0;0;0;9;0;16335;0;0;0;0
26.02.19;22:55:00;1;259;13552;0;2;0;19703;0;0;0;0;3;0;12741;0;0;0;0;4;0;19060;0;0;0;0;5;0;48849;2;0;0;0;0;0;6;0;37751;2;0;0;0;0;0;7;0;30122;0;0;0;0;8;0;29888;0;0;0;0;9;0;16335;0;0;0;0
26.02.19;22:50:00;1;229;13531;0;2;0;19703;0;0;0;0;3;0;12741;0;0;0;0;4;0;19060;0;0;0;0;5;0;48849;2;0;0;0;0;0;6;0;37751;2;0;0;0;0;0;7;0;30122;0;0;0;0;8;0;29888;0;0;0;0;9;0;16335;0;0;0;0
26.02.19;22:45:00;1;229;13512;0;2;0;19703;0;0;0;0;3;0;12741;0;0;0;0;4;0;19060;0;0;0;0;5;0;48849;2;0;0;0;0;0;6;0;37751;2;0;0;0;0;0;7;0;30122;0;0;0;0;8;0;29888;0;0;0;0;9;0;16335;0;0;0;0
26.02.19;22:40:00;1;260;13493;0;2;0;19703;0;0;0;0;3;0;12741;0;0;0;0;4;0;19060;0;0;0;0;5;0;48849;2;0;0;0;0;0;6;0;37751;2;0;0;0;0;0;7;0;30122;0;0;0;0;8;0;29888;0;0;0;0;9;0;16335;0;0;0;0
26.02.19;22:35:00;1;291;13471;0;2;0;19703;0;0;0;0;3;0;12741;0;0;0;0;4;0;19060;0;0;0;0;5;0;48849;2;0;0;0;0;0;6;0;37751;2;0;0;0;0;0;7;0;30122;0;0;0;0;8;0;29888;0;0;0;0;9;0;16335;0;0;0;0
26.02.19;22:30:00;1;304;13446;0;2;0;19703;0;0;0;0;3;0;12741;0;0;0;0;4;0;19060;0;0;0;0;5;0;48849;2;0;0;0;0;0;6;0;37751;2;0;0;0;0;0;7;0;30122;0;0;0;0;8;0;29888;0;0;0;0;9;0;16335;0;0;0;0
26.02.19;22:25:00;1;369;13421;0;2;0;19703;0;0;0;0;3;0;12741;0;0;0;0;4;0;19060;0;0;0;0;5;0;48849;2;0;0;0;0;0;6;0;37751;2;0;0;0;0;0;7;0;30122;0;0;0;0;8;0;29888;0;0;0;0;9;0;16335;0;0;0;0
26.02.19;22:20:00;1;349;13390;0;2;0;19703;0;0;0;0;3;0;12741;0;0;0;0;4;0;19060;0;0;0;0;5;0;48849;2;0;0;0;0;0;6;0;37751;2;0;0;0;0;0;7;0;30122;0;0;0;0;8;0;29888;0;0;0;0;9;0;16335;0;0;0;0
26.02.19;22:15:00;1;382;13361;0;2;0;19703;0;0;0;0;3;0;12741;0;0;0;0;4;0;19060;0;0;0;0;5;0;48849;2;0;0;0;0;0;6;0;37751;2;0;0;0;0;0;7;0;30122;0;0;0;0;8;0;29888;0;0;0;0;9;0;16335;0;0;0;0
26.02.19;22:10:00;1;1075;13325;0;2;0;19703;0;0;0;0;3;0;12741;0;0;0;0;4;0;19060;0;0;0;0;5;0;48849;2;0;0;0;0;0;6;0;37751;2;0;0;0;0;0;7;0;30122;0;0;0;0;8;0;29888;0;0;0;0;9;0;16335;0;0;0;0
26.02.19;22:05:00;1;454;13236;0;2;0;19703;0;0;0;0;3;0;12741;0;0;0;0;4;0;19060;0;0;0;0;5;0;48849;2;0;0;0;0;0;6;0;37751;2;0;0;0;0;0;7;0;30122;0;0;0;0;8;0;29888;0;0;0;0;9;0;16335;0;0;0;0
26.02.19;22:00:00;1;394;13198;0;2;0;19703;0;0;0;0;3;0;12741;0;0;0;0;4;0;19060;0;0;0;0;5;0;48849;2;0;0;0;0;0;6;0;37751;2;0;0;0;0;0;7;0;30122;0;0;0;0;8;0;29888;0;0;0;0;9;0;16335;0;0;0;0
26.02.19;21:55:00;1;392;13164;0;2;0;19703;0;0;0;0;3;0;12741;0;0;0;0;4;0;19060;0;0;0;0;5;0;48849;2;0;0;0;0;0;6;0;37751;2;0;0;0;0;0;7;0;30122;0;0;0;0;8;0;29888;0;0;0;0;9;0;16335;0;0;0;0
26.02.19;21:50:00;1;392;13129;0;2;0;19703;0;0;0;0;3;0;12741;0;0;0;0;4;0;19060;0;0;0;0;5;0;48849;2;0;0;0;0;0;6;0;37751;2;0;0;0;0;0;7;0;30122;0;0;0;0;8;0;29888;0;0;0;0;9;0;16335;0;0;0;0
26.02.19;21:45:00;1;416;13096;0;2;0;19703;0;0;0;0;3;0;12741;0;0;0;0;4;0;19060;0;0;0;0;5;0;48849;2;0;0;0;0;0;6;0;37751;2;0;0;0;0;0;7;0;30122;0;0;0;0;8;0;29888;0;0;0;0;9;0;16335;0;0;0;0
26.02.19;21:40:00;1;505;13058;0;2;0;19703;0;0;0;0;3;0;12741;0;0;0;0;4;0;19060;0;0;0;0;5;0;48849;2;0;0;0;0;0;6;0;37751;2;0;0;0;0;0;7;0;30122;0;0;0;0;8;0;29888;0;0;0;0;9;0;16335;0;0;0;0
26.02.19;21:35:00;1;505;13016;0;2;0;19703;0;0;0;0;3;0;12741;0;0;0;0;4;0;19060;0;0;0;0;5;0;48849;2;0;0;0;0;0;6;0;37751;2;0;0;0;0;0;7;0;30122;0;0;0;0;8;0;29888;0;0;0;0;9;0;16335;0;0;0;0
26.02.19;21:30:00;1;524;12973;0;2;0;19703;0;0;0;0;3;0;12741;0;0;0;0;4;0;19060;0;0;0;0;5;0;48849;2;0;0;0;0;0;6;0;37751;2;0;0;0;0;0;7;0;30122;0;0;0;0;8;0;29888;0;0;0;0;9;0;16335;0;0;0;0
26.02.19;21:25:00;1;537;12929;0;2;0;19703;0;0;0;0;3;0;12741;0;0;0;0;4;0;19060;0;0;0;0;5;0;48849;2;0;0;0;0;0;6;0;37751;2;0;0;0;0;0;7;0;30122;0;0;0;0;8;0;29888;0;0;0;0;9;0;16335;0;0;0;0
26.02.19;21:20:00;1;562;12885;0;2;0;19703;0;0;0;0;3;0;12741;0;0;0;0;4;0;19060;0;0;0;0;5;0;48849;2;0;0;0;0;0;6;0;37751;2;0;0;0;0;0;7;0;30122;0;0;0;0;8;0;29888;0;0;0;0;9;0;16335;0;0;0;0
26.02.19;21:15:00;1;573;12838;0;2;0;19703;0;0;0;0;3;0;12741;0;0;0;0;4;0;19060;0;0;0;0;5;0;48849;2;0;0;0;0;0;6;0;37751;2;0;0;0;0;0;7;0;30122;0;0;0;0;8;0;29888;0;0;0;0;9;0;16335;0;0;0;0
26.02.19;21:10:00;1;595;12790;0;2;0;19703;0;0;0;0;3;0;12741;0;0;0;0;4;0;19060;0;0;0;0;5;0;48849;2;0;0;0;0;0;6;0;37751;2;0;0;0;0;0;7;0;30122;0;0;0;0;8;0;29888;0;0;0;0;9;0;16335;0;0;0;0
26.02.19;21:05:00;1;549;12741;0;2;0;19703;0;0;0;0;3;0;12741;0;0;0;0;4;0;19060;0;0;0;0;5;0;48849;2;0;0;0;0;0;6;0;37751;2;0;0;0;0;0;7;0;30122;0;0;0;0;8;0;29888;0;0;0;0;9;0;16335;0;0;0;0
26.02.19;21:00:00;1;535;12696;0;2;0;19703;0;0;0;0;3;0;12741;0;0;0;0;4;0;19060;0;0;0;0;5;0;48849;2;0;0;0;0;0;6;0;37751;2;0;0;0;0;0;7;0;30122;0;0;0;0;8;0;29888;0;0;0;0;9;0;16335;0;0;0;0
26.02.19;20:55:00;1;534;12651;0;2;0;19703;0;0;0;0;3;0;12741;0;0;0;0;4;0;19060;0;0;0;0;5;0;48849;2;0;0;0;0;0;6;0;37751;2;0;0;0;0;0;7;0;30122;0;0;0;0;8;0;29888;0;0;0;0;9;0;16335;0;0;0;0
26.02.19;20:50:00;1;536;12607;0;2;0;19703;0;0;0;0;3;0;12741;0;0;0;0;4;0;19060;0;0;0;0;5;0;48849;2;0;0;0;0;0;6;0;37751;2;0;0;0;0;0;7;0;30122;0;0;0;0;8;0;29888;0;0;0;0;9;0;16335;0;0;0;0
26.02.19;20:45:00;1;524;12562;0;2;0;19703;0;0;0;0;3;0;12741;0;0;0;0;4;0;19060;0;0;0;0;5;0;48849;2;0;0;0;0;0;6;0;37751;2;0;0;0;0;0;7;0;30122;0;0;0;0;8;0;29888;0;0;0;0;9;0;16335;0;0;0;0
26.02.19;20:40:00;1;536;12517;0;2;0;19703;0;0;0;0;3;0;12741;0;0;0;0;4;0;19060;0;0;0;0;5;0;48849;2;0;0;0;0;0;6;0;37751;2;0;0;0;0;0;7;0;30122;0;0;0;0;8;0;29888;0;0;0;0;9;0;16335;0;0;0;0
26.02.19;20:35:00;1;526;12473;0;2;0;19703;0;0;0;0;3;0;12741;0;0;0;0;4;0;19060;0;0;0;0;5;0;48849;2;0;0;0;0;0;6;0;37751;2;0;0;0;0;0;7;0;30122;0;0;0;0;8;0;29888;0;0;0;0;9;0;16335;0;0;0;0
26.02.19;20:30:00;1;532;12429;0;2;0;19703;0;0;0;0;3;0;12741;0;0;0;0;4;0;19060;0;0;0;0;5;0;48849;2;0;0;0;0;0;6;0;37751;2;0;0;0;0;0;7;0;30122;0;0;0;0;8;0;29888;0;0;0;0;9;0;16335;0;0;0;0
26.02.19;20:25:00;1;601;12383;0;2;0;19703;0;0;0;0;3;0;12741;0;0;0;0;4;0;19060;0;0;0;0;5;0;48849;2;0;0;0;0;0;6;0;37751;2;0;0;0;0;0;7;0;30122;0;0;0;0;8;0;29888;0;0;0;0;9;0;16335;0;0;0;0
26.02.19;20:20:00;1;637;12333;0;2;0;19703;0;0;0;0;3;0;12741;0;0;0;0;4;0;19060;0;0;0;0;5;0;48849;2;0;0;0;0;0;6;0;37751;2;0;0;0;0;0;7;0;30122;0;0;0;0;8;0;29888;0;0;0;0;9;0;16335;0;0;0;0
26.02.19;20:15:00;1;629;12280;0;2;0;19703;0;0;0;0;3;0;12741;0;0;0;0;4;0;19060;0;0;0;0;5;0;48849;2;0;0;0;0;0;6;0;37751;2;0;0;0;0;0;7;0;30122;0;0;0;0;8;0;29888;0;0;0;0;9;0;16335;0;0;0;0
26.02.19;20:10:00;1;623;12227;0;2;0;19703;0;0;0;0;3;0;12741;0;0;0;0;4;0;19060;0;0;0;0;5;0;48849;2;0;0;0;0;0;6;0;37751;2;0;0;0;0;0;7;0;30122;0;0;0;0;8;0;29888;0;0;0;0;9;0;16335;0;0;0;0
26.02.19;20:05:00;1;598;12174;0;2;0;19703;0;0;0;0;3;0;12741;0;0;0;0;4;0;19060;0;0;0;0;5;0;48849;2;0;0;0;0;0;6;0;37751;2;0;0;0;0;0;7;0;30122;0;0;0;0;8;0;29888;0;0;0;0;9;0;16335;0;0;0;0
26.02.19;20:00:00;1;582;12124;0;2;0;19703;0;0;0;0;3;0;12741;0;0;0;0;4;0;19060;0;0;0;0;5;0;48849;2;0;0;0;0;0;6;0;37751;2;0;0;0;0;0;7;0;30122;0;0;0;0;8;0;29888;0;0;0;0;9;0;16335;0;0;0;0
26.02.19;19:55:00;1;536;12075;0;2;0;19703;0;0;0;0;3;0;12741;0;0;0;0;4;0;19060;0;0;0;0;5;0;48849;2;0;0;0;0;0;6;0;37751;2;0;0;0;0;0;7;0;30122;0;0;0;0;8;0;29888;0;0;0;0;9;0;16335;0;0;0;0
26.02.19;19:50:00;1;545;12031;0;2;0;19703;0;0;0;0;3;0;12741;0;0;0;0;4;0;19060;0;0;0;0;5;0;48849;2;0;0;0;0;0;6;0;37751;2;0;0;0;0;0;7;0;30122;0;0;0;0;8;0;29888;0;0;0;0;9;0;16335;0;0;0;0
26.02.19;19:45:00;1;503;11985;0;2;0;19703;0;0;0;0;3;0;12741;0;0;0;0;4;0;19060;0;0;0;0;5;0;48849;2;0;0;0;0;0;6;0;37751;2;0;0;0;0;0;7;0;30122;0;0;0;0;8;0;29888;0;0;0;0;9;0;16335;0;0;0;0
26.02.19;19:40:00;1;476;11944;0;2;0;19703;0;0;0;0;3;0;12741;0;0;0;0;4;0;19060;0;0;0;0;5;0;48849;2;0;0;0;0;0;6;0;37751;2;0;0;0;0;0;7;0;30122;0;0;0;0;8;0;29888;0;0;0;0;9;0;16335;0;0;0;0
26.02.19;19:35:00;1;475;11904;0;2;0;19703;0;0;0;0;3;0;12741;0;0;0;0;4;0;19060;0;0;0;0;5;0;48849;2;0;0;0;0;0;6;0;37751;2;0;0;0;0;0;7;0;30122;0;0;0;0;8;0;29888;0;0;0;0;9;0;16335;0;0;0;0
26.02.19;19:30:00;1;485;11865;0;2;0;19703;0;0;0;0;3;0;12741;0;0;0;0;4;0;19060;0;0;0;0;5;0;48849;2;0;0;0;0;0;6;0;37751;2;0;0;0;0;0;7;0;30122;0;0;0;0;8;0;29888;0;0;0;0;9;0;16335;0;0;0;0
26.02.19;19:25:00;1;519;11825;0;2;0;19703;0;0;0;0;3;0;12741;0;0;0;0;4;0;19060;0;0;0;0;5;0;48849;2;0;0;0;0;0;6;0;37751;2;0;0;0;0;0;7;0;30122;0;0;0;0;8;0;29888;0;0;0;0;9;0;16335;0;0;0;0
26.02.19;19:20:00;1;522;11781;0;2;0;19703;0;0;0;0;3;0;12741;0;0;0;0;4;0;19060;0;0;0;0;5;0;48849;2;0;0;0;0;0;6;0;37751;2;0;0;0;0;0;7;0;30122;0;0;0;0;8;0;29888;0;0;0;0;9;0;16335;0;0;0;0
26.02.19;19:15:00;1;503;11737;0;2;0;19703;0;0;0;0;3;0;12741;0;0;0;0;4;0;19060;0;0;0;0;5;0;48849;2;0;0;0;0;0;6;0;37751;2;0;0;0;0;0;7;0;30122;0;0;0;0;8;0;29888;0;0;0;0;9;0;16335;0;0;0;0
26.02.19;19:10:00;1;477;11696;0;2;0;19703;0;0;0;0;3;0;12741;0;0;0;0;4;0;19060;0;0;0;0;5;0;48849;2;0;0;0;0;0;6;0;37751;2;0;0;0;0;0;7;0;30122;0;0;0;0;8;0;29888;0;0;0;0;9;0;16335;0;0;0;0
26.02.19;19:05:00;1;480;11656;0;2;0;19703;0;0;0;0;3;0;12741;0;0;0;0;4;0;19060;0;0;0;0;5;0;48849;2;0;0;0;0;0;6;0;37751;2;0;0;0;0;0;7;0;30122;0;0;0;0;8;0;29888;0;0;0;0;9;0;16335;0;0;0;0
26.02.19;19:00:00;1;479;11616;0;2;0;19703;0;0;0;0;3;0;12741;0;0;0;0;4;0;19060;0;0;0;0;5;0;48849;2;0;0;0;0;0;6;0;37751;2;0;0;0;0;0;7;0;30122;0;0;0;0;8;0;29888;0;0;0;0;9;0;16335;0;0;0;0
26.02.19;18:55:00;1;480;11576;0;2;0;19703;0;0;0;0;3;0;12741;0;0;0;0;4;0;19060;0;0;0;0;5;0;48849;2;0;0;0;0;0;6;0;37751;2;0;0;0;0;0;7;0;30122;0;0;0;0;8;0;29888;0;0;0;0;9;0;16335;0;0;0;0
26.02.19;18:50:00;1;485;11536;0;2;0;19703;0;0;0;0;3;0;12741;0;0;0;0;4;0;19060;0;0;0;0;5;0;48849;2;0;0;0;0;0;6;0;37751;2;0;0;0;0;0;7;0;30122;0;0;0;0;8;0;29888;0;0;0;0;9;0;16335;0;0;0;0
26.02.19;18:45:00;1;524;11495;0;2;0;19703;0;0;0;0;3;0;12741;0;0;0;0;4;0;19060;0;0;0;0;5;0;48849;2;0;0;0;0;0;6;0;37751;2;0;0;0;0;0;7;0;30122;0;0;0;0;8;0;29888;0;0;0;0;9;0;16335;0;0;0;0
26.02.19;18:40:00;1;460;11455;0;2;0;19703;0;0;0;0;3;0;12741;0;0;0;0;4;0;19060;0;0;0;0;5;0;48849;2;0;0;0;0;0;6;0;37751;2;0;0;0;0;0;7;0;30122;0;0;0;0;8;0;29888;0;0;0;0;9;0;16335;0;0;0;0
26.02.19;18:35:00;1;481;11417;0;2;0;19703;0;0;0;0;3;0;12741;0;0;0;0;4;0;19060;0;0;0;0;5;0;48849;2;0;0;0;0;0;6;0;37751;2;0;0;0;0;0;7;0;30122;0;0;0;0;8;0;29888;0;0;0;0;9;0;16335;0;0;0;0
26.02.19;18:30:00;1;555;11374;0;2;0;19703;0;0;0;0;3;0;12741;0;0;0;0;4;0;19060;0;0;0;0;5;0;48849;2;0;0;0;0;0;6;0;37751;2;0;0;0;0;0;7;0;30122;0;0;0;0;8;0;29888;0;0;0;0;9;0;16335;0;0;0;0
26.02.19;18:25:00;1;576;11328;0;2;0;19703;0;0;0;0;3;0;12741;0;0;0;0;4;0;19060;0;0;0;0;5;0;48849;2;0;0;0;0;0;6;0;37751;2;0;0;0;0;0;7;0;30122;0;0;0;0;8;0;29888;0;0;0;0;9;0;16335;0;0;0;0
26.02.19;18:20:00;1;583;11280;0;2;0;19703;0;0;0;0;3;0;12741;0;0;0;0;4;0;19060;0;0;0;0;5;0;48849;2;0;0;0;0;0;6;0;37751;2;0;0;0;0;0;7;0;30122;0;0;0;0;8;0;29888;0;0;0;0;9;0;16335;0;0;0;0
26.02.19;18:15:00;1;541;11230;0;2;0;19703;0;0;0;0;3;0;12741;0;0;0;0;4;0;19060;0;0;0;0;5;0;48849;2;0;0;0;0;0;6;0;37751;0;0;0;0;0;0;7;0;30122;0;0;0;0;8;0;29888;0;0;0;0;9;0;16335;0;0;0;0
26.02.19;18:10:00;1;642;11184;0;2;0;19703;0;0;36;2;3;0;12741;2;0;269;20;4;0;19060;0;0;0;0;5;0;48849;2;0;0;0;0;0;6;0;37751;2;0;0;0;0;0;7;0;30122;0;0;0;0;8;0;29888;0;0;0;0;9;0;16335;0;0;0;0
26.02.19;18:05:00;1;955;11131;0;2;0;19703;6;0;273;18;3;0;12741;6;0;306;20;4;0;19060;2;0;58;18;5;0;48849;2;0;0;0;0;0;6;0;37751;2;0;0;0;0;0;7;0;30122;0;0;0;0;8;0;29888;0;0;0;0;9;0;16335;0;0;0;0
26.02.19;18:00:00;1;817;11049;0;2;0;19703;6;0;335;18;3;0;12741;6;2;407;20;4;0;19060;1;0;126;19;5;0;48849;2;0;0;213;211;21;6;0;37751;1;7;0;123;251;21;7;0;30122;0;0;158;10;8;0;29888;0;0;157;10;9;0;16335;0;0;164;8
26.02.19;17:55:00;1;845;10980;0;2;0;19703;6;0;367;19;3;2;12741;6;9;407;21;4;0;19060;1;0;176;19;5;0;48849;1;0;0;392;583;27;6;0;37751;23;13;0;181;505;26;7;0;30122;6;0;336;18;8;0;29888;6;0;334;18;9;0;16335;6;0;343;14
26.02.19;17:50:00;1;725;10917;0;2;0;19703;6;0;382;19;3;1;12741;6;3;464;21;4;0;19060;1;0;204;20;5;9;48849;1;0;0;397;617;28;6;0;37751;23;0;11;565;181;27;7;0;30122;6;0;391;19;8;0;29888;6;0;392;18;9;0;16335;4;0;403;14
26.02.19;17:45:00;1;691;10856;0;2;0;19703;6;0;395;20;3;3;12740;3;11;443;21;4;0;19060;3;0;220;20;5;0;48848;8;0;0;410;645;28;6;0;37751;1;5;5;559;553;27;7;0;30122;6;0;417;19;8;0;29888;6;0;416;19;9;0;16335;6;0;437;15
26.02.19;17:40:00;1;882;10792;0;2;68;19703;4;101;355;21;3;15;12740;6;24;487;22;4;15;19060;3;16;198;21;5;100;48846;4;17;19;385;611;29;6;66;37749;4;29;43;486;463;28;7;3;30122;6;13;445;20;8;2;29888;6;7;464;19;9;2;16335;6;3;508;15
26.02.19;17:35:00;1;871;10719;0;2;113;19697;4;150;350;21;3;56;12739;4;89;469;22;4;57;19059;3;59;197;21;5;134;48837;4;31;29;385;611;29;6;91;37743;4;46;67;486;463;28;7;17;30121;6;35;427;20;8;18;29888;6;29;431;20;9;0;16334;6;0;546;15
26.02.19;17:30:00;1;1924;10572;0;2;185;19687;4;224;354;22;3;74;12734;4;119;519;22;4;142;19054;5;148;221;21;5;135;48826;4;35;39;385;611;30;6;97;37735;4;39;58;486;463;28;7;65;30119;4;101;423;20;8;4;29886;6;10;480;20;9;3;16334;3;10;499;15
26.02.19;17:25:00;1;1863;10438;0;2;170;19672;4;204;350;22;3;72;12728;4;119;520;23;4;120;19042;5;126;214;22;5;147;48814;4;41;40;385;611;30;6;107;37727;4;58;88;486;463;28;7;69;30114;4;108;435;21;8;34;29885;4;60;359;20;9;0;16334;6;0;546;16
26.02.19;17:20:00;1;2249;10254;0;2;127;19657;4;163;371;22;3;64;12722;4;105;497;23;4;74;19031;5;77;202;22;5;174;48801;4;58;48;385;611;30;6;123;37717;4;43;58;486;463;29;7;84;30108;4;117;409;21;8;44;29882;4;86;438;21;9;4;16334;6;7;518;16
26.02.19;17:15:00;1;2155;10090;0;2;155;19646;4;192;371;23;3;67;12716;4;115;524;23;4;95;19024;3;98;206;22;5;188;48786;4;69;46;385;611;30;6;129;37707;4;37;48;486;463;29;7;100;30101;4;135;443;21;8;65;29879;4;101;443;21;9;0;16334;6;0;551;17
26.02.19;17:10:00;1;2849;9873;0;2;282;19632;4;326;372;23;3;137;12711;4;180;530;23;4;221;19015;5;230;224;23;5;275;48769;4;122;95;385;611;30;6;205;37694;4;105;126;486;463;29;7;260;30092;4;308;467;21;8;198;29873;4;237;457;21;9;11;16334;6;20;519;17
26.02.19;17:05:00;1;4948;9611;0;2;308;19609;4;354;382;24;3;161;12699;4;206;528;23;4;224;18997;5;234;231;23;5;337;48746;4;160;130;385;611;30;6;242;37677;4;146;162;486;463;29;7;306;30071;4;351;474;22;8;235;29856;4;275;455;22;9;33;16333;6;48;529;18
26.02.19;17:00:00;1;1915;9170;0;2;335;19582;4;382;390;24;3;200;12685;4;242;506;24;4;243;18978;5;253;227;23;5;456;48714;4;211;186;390;612;30;6;324;37655;4;174;201;486;502;29;7;329;30044;4;370;462;22;8;289;29836;4;327;439;22;9;111;16329;4;143;503;18
26.02.19;16:55:00;1;637;9031;0;2;369;19554;4;418;394;25;3;221;12669;4;268;497;24;4;269;18958;5;280;232;24;5;505;48676;4;244;200;393;603;30;6;374;37628;4;117;139;524;545;29;7;372;30017;4;408;447;22;8;332;29812;4;368;447;22;9;128;16320;4;165;510;19
26.02.19;16:50:00;1;2877;8981;0;2;501;19523;4;555;398;25;3;300;12650;4;351;529;24;4;391;18935;5;407;232;24;5;690;48630;4;333;285;394;637;31;6;521;37594;4;249;261;567;548;29;7;568;29986;4;611;457;23;8;491;29784;4;535;480;23;9;193;16309;4;229;531;19
26.02.19;16:45:00;1;4431;8759;0;2;547;19481;4;599;390;26;3;332;12625;4;385;501;24;4;426;18903;5;443;229;25;5;811;48571;4;396;340;400;647;31;6;617;37549;4;304;313;563;555;29;7;600;29939;4;656;462;23;8;578;29743;4;635;459;23;9;257;16293;4;302;526;20
26.02.19;16:40:00;1;2654;8486;0;2;584;19435;4;641;396;26;3;358;12598;4;409;503;24;4;454;18867;5;473;233;25;5;875;48502;4;421;364;404;640;31;6;660;37497;4;327;332;564;552;29;7;641;29888;4;687;465;24;8;613;29694;4;667;459;24;9;279;16271;4;322;531;20
26.02.19;16:35:00;1;4660;8261;0;2;644;19387;4;706;398;27;3;399;12568;4;453;501;24;4;504;18829;5;525;229;26;5;968;48428;4;465;403;410;638;31;6;737;37441;4;392;393;584;545;29;7;717;29835;4;783;439;24;8;702;29643;4;756;467;24;9;308;16248;4;354;518;21
26.02.19;16:30:00;1;627;7953;0;2;1217;19333;4;1295;383;28;3;665;12535;4;719;422;25;4;919;18787;5;957;239;26;5;1501;48343;4;779;644;414;678;31;6;1144;37376;4;590;584;591;564;29;7;1437;29775;4;1509;470;24;8;1376;29585;4;1450;468;24;9;472;16222;4;511;373;21
26.02.19;16:25:00;1;519;7901;0;2;1708;19235;4;1803;386;29;3;911;12481;4;978;441;25;4;1233;18712;5;1284;244;26;5;1954;48215;4;1024;848;421;691;32;6;1525;37279;4;798;780;597;562;29;7;2086;29659;4;2204;490;25;8;2096;29473;4;2198;475;25;9;802;16184;4;853;395;22
26.02.19;16:20:00;1;697;7857;0;2;1779;19088;4;1879;393;28;3;966;12402;4;1032;431;24;4;1240;18606;5;1291;226;27;5;2126;48040;4;1109;922;417;684;32;6;1631;37144;4;846;824;597;575;30;7;2145;29477;4;2258;478;25;8;2118;29288;4;2229;478;25;9;930;16112;4;990;433;23
26.02.19;16:15:00;1;765;7798;0;2;2097;18940;4;2208;390;29;3;1148;12321;4;1218;429;24;4;1431;18503;5;1491;223;27;5;2576;47856;4;1388;1123;430;667;32;6;2041;37002;4;1080;1045;588;576;30;7;2750;29298;4;2879;486;25;8;2770;29112;4;2895;476;25;9;1286;16034;4;1364;458;23
26.02.19;16:10:00;1;600;7736;0;2;1969;18766;4;2078;398;29;3;1066;12226;4;1138;432;24;4;1287;18385;5;1341;206;27;5;2555;47652;4;1363;1107;420;687;32;6;1962;36845;4;997;985;598;569;30;7;2436;29069;4;2560;480;25;8;2393;28881;4;2512;476;25;9;1165;15926;4;1242;498;24
26.02.19;16:05:00;1;605;7687;0;2;2357;18602;4;2481;390;29;3;1285;12138;4;1359;417;25;4;1471;18278;5;1532;199;27;5;3029;47441;4;1605;1330;432;692;32;6;2300;36682;4;1170;1151;601;575;30;7;2898;28866;4;3041;482;25;8;2859;28681;4;2998;479;25;9;1451;15829;4;1543;514;24
26.02.19;16:00:00;1;1247;7639;0;2;2459;18398;4;2593;407;29;3;1333;12027;4;1415;424;25;4;1440;18151;5;1500;237;27;5;3160;47196;4;1678;1390;427;686;32;6;2450;36493;4;1257;1230;604;571;29;7;3113;28614;4;3256;485;25;8;3085;28432;4;3234;468;25;9;1635;15702;4;1736;528;24
26.02.19;15:55:00;1;2691;7532;0;2;2580;18194;4;2713;391;29;3;1401;11917;4;1483;425;25;4;1545;18032;5;1610;236;28;5;3314;46928;4;1779;1463;428;681;32;6;2537;36287;4;1344;1313;599;573;29;7;3130;28357;4;3287;478;25;8;3077;28178;4;3229;463;25;9;1676;15567;4;1783;526;24
26.02.19;15:50:00;1;2814;7304;0;2;2297;17980;4;2421;397;29;3;1241;11800;4;1315;424;25;4;1449;17902;5;1509;247;28;5;3083;46653;4;1640;1363;427;683;32;6;2406;36074;4;1231;1210;603;572;29;7;2883;28094;4;3016;479;25;8;2873;27917;4;3009;478;25;9;1555;15425;4;1647;515;24
26.02.19;15:45:00;1;2651;7072;0;2;2126;17789;4;2246;406;29;3;1141;11697;4;1213;413;25;4;1378;17782;5;1435;246;28;5;2902;46398;4;1541;1271;425;678;32;6;2260;35877;4;1185;1157;599;580;29;7;2632;27853;4;2774;474;25;8;2627;27678;4;2754;475;25;9;1405;15295;4;1491;522;24
26.02.19;15:40:00;1;2625;6852;0;2;1800;17614;4;1903;399;29;3;960;11603;4;1024;426;25;4;1245;17667;5;1297;246;28;5;2525;46171;4;1344;1101;418;686;32;6;1976;35702;4;985;1002;597;572;29;7;2257;27630;4;2365;473;25;8;2254;27452;4;2369;473;25;9;1215;15175;4;1297;524;24
26.02.19;15:35:00;1;2603;6633;0;2;2034;17462;4;2142;390;29;3;1059;11522;4;1125;429;25;4;1344;17562;5;1400;243;29;5;2687;45959;4;1396;1171;424;683;32;6;1994;35538;4;1028;1021;599;570;29;7;2178;27440;4;2298;478;26;8;2103;27263;4;2204;475;26;9;1098;15073;4;1179;526;24
26.02.19;15:30:00;1;3430;6394;0;2;2189;17282;4;2307;393;30;3;1173;11429;4;1246;438;26;4;1577;17446;5;1643;242;29;5;3173;45728;4;1687;1401;422;679;32;6;2451;35359;4;1255;1222;597;573;29;7;2684;27253;4;2816;478;26;8;2661;27084;4;2787;476;26;9;1441;14979;4;1531;523;25
26.02.19;15:25:00;1;3380;6108;0;2;2232;17103;4;2357;406;30;3;1182;11332;4;1257;445;26;4;1585;17317;5;1651;240;29;5;3173;45467;4;1681;1402;425;686;32;6;2439;35158;4;1246;1225;603;573;29;7;2643;27033;4;2761;459;26;8;2637;26864;4;2768;475;26;9;1435;14860;4;1529;522;25
26.02.19;15:20:00;1;2610;5853;0;2;2219;16910;4;2342;400;31;3;1204;11229;4;1278;429;26;4;1668;17178;5;1737;242;30;5;3331;45199;4;1792;1461;423;669;32;6;2572;34952;4;1334;1296;594;570;29;7;2712;26795;4;2851;475;26;8;2681;26630;4;2813;467;26;9;1449;14734;4;1539;518;25
26.02.19;15:15:00;1;2618;5636;0;2;2233;16727;4;2357;390;31;3;1182;11130;4;1258;421;27;4;1717;17041;5;1789;237;30;5;3455;44921;4;1842;1516;421;673;32;6;2685;34737;4;1419;1356;598;589;29;7;2747;26570;4;2887;466;26;8;2719;26407;4;2846;475;27;9;1496;14612;4;1590;526;26
26.02.19;15:10:00;1;2485;5419;0;2;2641;16543;4;2783;397;31;3;1459;11034;4;1545;445;27;4;2081;16899;5;2168;238;30;5;4110;44589;4;2215;1825;423;681;32;6;3188;34482;4;1642;1610;596;582;29;7;3357;26346;4;3517;481;26;8;3348;26186;4;3510;476;27;9;1820;14491;4;1930;532;26
26.02.19;15:05:00;1;1031;5239;0;2;2917;16322;4;3077;414;31;3;1660;10912;4;1753;445;27;4;2318;16725;5;2415;237;30;5;4594;44244;4;2479;2031;422;685;32;6;3464;34215;4;1783;1743;599;573;29;7;3582;26065;4;3752;474;26;8;3475;25906;4;3642;483;27;9;1890;14339;4;2000;522;26
26.02.19;15:00:00;1;337;5188;0;2;2078;16075;4;2193;398;30;3;1167;10770;4;1244;473;27;4;1781;16528;5;1855;234;30;5;3669;43869;4;1959;1630;421;685;32;6;2845;33927;4;1465;1437;584;580;29;7;2739;25760;4;2870;476;27;8;2755;25611;4;2891;478;27;9;1489;14179;4;1584;526;25
26.02.19;14:55:00;1;367;5160;0;2;1927;15897;4;2038;398;31;3;1053;10670;4;1125;469;27;4;1652;16376;5;1721;236;30;5;3348;43578;4;1795;1479;414;669;32;6;2352;33700;4;1223;1186;609;593;29;7;1899;25527;4;2003;490;27;8;2161;25378;4;2277;475;27;9;1119;14052;4;1201;542;26
26.02.19;14:50:00;1;394;5130;0;2;2164;15721;4;2285;402;31;3;1246;10576;4;1327;474;28;4;1804;16229;5;1879;237;30;5;3563;43247;4;1900;1567;421;676;33;6;2718;33446;4;1397;1357;596;571;29;7;2671;25355;4;2806;477;27;8;2691;25179;4;2827;470;27;9;1492;13950;4;1585;516;26
26.02.19;14:45:00;1;409;5097;0;2;2347;15539;4;2474;399;32;3;1421;10470;4;1507;485;28;4;2030;16077;5;2114;236;31;5;3964;42949;4;2119;1765;410;667;33;6;3089;33216;4;1586;1564;590;568;30;7;3005;25129;4;3158;482;27;8;2977;24951;4;3122;467;27;9;1661;13824;4;1756;514;26
26.02.19;14:40:00;1;413;5063;0;2;2718;15345;4;2864;402;32;3;1711;10353;4;1819;524;29;4;2317;15910;5;2413;237;31;5;4471;42614;4;2417;1982;415;678;33;6;3372;32955;4;1719;1685;574;553;29;7;3415;24880;4;3580;459;27;8;3355;24699;4;3516;466;27;9;1828;13682;4;1937;521;27